Tracking 19638 objects as of 20-May-2019
HD Live streaming from Space Station
objects crossing your sky now

OPS 7484

Track OPS 7484 now!
OPS 7484 is classified as:


NORAD ID: 11397
Int'l Code: 1979-053A
Perigee: 36,203.0 km
Apogee: 36,250.5 km
Inclination: 12.8 °
Period: 1,458.3 minutes
Semi major axis: 42597 km
RCS: Unknown
Launch date: June 10, 1979
Source: United States (US)
Launch site: AIR FORCE EASTERN TEST RANGE (AFETR)
aabbcc
Your satellite tracking list
Your tracking list is empty




NASA's NSSDC Master Catalog

Two Line Element Set (TLE):
1 11397U 79053A   19140.38342926 -.00000188  00000-0  00000+0 0  9994
2 11397  12.8299 322.2904 0005580 247.3877 112.4797  0.98746732   469
Source of the keplerian elements: McCants